Tracking 25710 objects as of 6-Jul-2022
HD Live streaming from Space Station
objects crossing your sky now

FENGYUN 1C DEB

Track FENGYUN 1C DEB now!
10-day predictions


NORAD ID: 33716
Int'l Code: 1999-025DHD
Perigee: 726.1 km
Apogee: 865.1 km
Inclination: 98.9 °
Period: 100.6 minutes
Semi major axis: 7166 km
RCS: 0.0093 m2 (small)
Launch date: May 10, 1999
Source: People's Republic of China (PRC)
Launch site: Taiyaun Space Center, China (TSC)

Note: This is SATELLITE DEBRIS
aabbcc
Your satellite tracking list
Your tracking list is empty




NASA's NSSDC Master Catalog

Two Line Element Set (TLE):
1 33716U 99025DHD 22186.42578002  .00000109  00000-0  56129-4 0  9999
2 33716  98.9428  66.2951 0096919  67.9028 293.2409 14.30979494471817
Source of the keplerian elements: AFSPC